Regional Weather Roundup
Issued by NWS

Home | Current Version | Previous Version | Text Only | Print | Product List | Glossary On
Versions: 1 2 3 4 5 6 7 8 9 10 11 12 13 14 15 16 17 18 19 20 21 22 23 24 25 26 27 28 29 30 31 32 33 34 35 36 37 38 39 40 41 42 43 44 45 46 47 48 49 50
000
ASUS45 KREV 221010
RWRNV
NEVADA REGIONAL WEATHER ROUNDUP
NATIONAL WEATHER SERVICE RENO NV
200 AM PST SUN JAN 22 2017

NOTE: "FAIR" INDICATES FEW OR NO CLOUDS BELOW 12,000 FEET WITH NO
SIGNIFICANT WEATHER AND/OR OBSTRUCTIONS TO VISIBILITY.

NVZ001-003-004-221100-
WESTERN NEVADA

CITY           SKY/WX    TMP DP  RH WIND       PRES   REMARKS
RENO           LGT SNOW  33  30  88 S7        29.71F FOG
CARSON CITY    HVY SNOW  32  28  86 CALM      29.73F
MINDEN         LGT SNOW  32  32 100 NW5       29.72F
PYRAMID LAKE     N/A     37 N/A N/A S10         N/A
FALLON         FLURRIES  36  31  82 S13       29.77F
LOVELOCK       CLOUDY    36  26  67 MISG      29.77S
HAWTHORNE        N/A     39  28  65 SE28G43   29.76F
$$

NVZ002-CAZ072-073-221100-
NORTHERN AND CENTRAL SIERRA

CITY           SKY/WX    TMP DP  RH WIND       PRES   REMARKS
S. LAKE TAHOE  LGT SNOW  30  27  88 VRB3      29.64F FOG
TRUCKEE        LGT SNOW  28  28 100 NW3       29.67F VSB 1
SQUAW VLY 8000   N/A     23  23 100 S8          N/A
SUSANVILLE     CLOUDY    36  30  80 E10       29.66F
MAMMOTH LAKES  LGT SNOW  21  20  98 SE6       29.83F VSB 1
BRIDGEPORT     LGT SNOW  28  23  81 NE9       29.65F
$$

NVZ030-031-036-221100-
NORTHERN NEVADA

CITY           SKY/WX    TMP DP  RH WIND       PRES   REMARKS
ELKO           CLOUDY    24  15  68 CALM      29.84F
WINNEMUCCA     CLOUDY    34  25  69 E8        29.76F
WENDOVER       PTCLDY    21  18  86 NE5       29.95R
$$

NVZ035-037-221100-
CENTRAL NEVADA

CITY           SKY/WX    TMP DP  RH WIND       PRES   REMARKS
ELY            CLOUDY    24  19  81 S15       29.91F
EUREKA           N/A     31  18  58 SE14      29.85S
$$

NVZ013-014-221100-
SOUTH CENTRAL NEVADA

CITY           SKY/WX    TMP DP  RH WIND       PRES   REMARKS
TONOPAH        CLOUDY    32  27  81 SE15G21   29.90F
$$

NVZ017-020-022-221100-
SOUTHERN NEVADA

CITY           SKY/WX    TMP DP  RH WIND       PRES   REMARKS
LAS VEGAS      CLOUDY    47  32  56 S6        30.02R
N. LAS VEGAS   CLOUDY    44  35  70 N3        30.03R
NELLIS AFB     MOCLDY    45  37  73 N5        30.04R
HENDERSON      CLOUDY    44  34  67 S10       30.05R
MERCURY        CLOUDY    39  32  76 NW6       30.01R
$$



USA.gov is the U.S. government's official web portal to all federal, state and local government web resources and services.